When you browse on this site, cookies collect data to enhance your experience and personalize the content and advertising you see.
Visit our Privacy Policy to learn more. By continuing to use the site, you agree to this use of cookies and data.
  • In United Kingdom
  • List of Countries
  • For 7 days
  • Water Temperature
  • Satellite Maps
  • Weather Map
  • Weather Widgets
  • user-avatar
    Login

    Hourly Weather Salawaj

    Today, 24 January, Thursday

    Time Temperature Precipitation Wind Pressure Humidity
    00:00 +19°C° 0 mm 1 mps 745 mmHg 87%
    01:00 +18°C° 0 mm 1 mps 745 mmHg 92%
    02:00 +18°C° 0 mm 1 mps 745 mmHg 92%
    03:00 +16°C° 0 mm 1 mps 745 mmHg 92%
    04:00 +16°C° 0 mm 1 mps 745 mmHg 93%
    05:00 +16°C° 0 mm 1 mps 745 mmHg 92%
    06:00 +16°C° 0 mm 1 mps 745 mmHg 91%
    07:00 +16°C° 0 mm 1 mps 746 mmHg 87%
    08:00 +21°C° 0 mm 1 mps 746 mmHg 72%
    09:00 +25°C° 0 mm 1 mps 746 mmHg 57%
    10:00 +28°C° 0 mm 1 mps 747 mmHg 42%
    11:00 +30°C° 0 mm 1 mps 746 mmHg 37%
    12:00 +32°C° 0 mm 1 mps 745 mmHg 32%
    13:00 +34°C° 0 mm 1 mps 745 mmHg 26%
    14:00 +34°C° 0 mm 1 mps 744 mmHg 27%
    15:00 +33°C° 0 mm 1 mps 744 mmHg 29%
    16:00 +33°C° 0 mm 1 mps 744 mmHg 30%
    17:00 +30°C° 0 mm 1 mps 744 mmHg 41%
    18:00 +27°C° 0 mm 1 mps 744 mmHg 53%
    19:00 +24°C° 0 mm 1 mps 744 mmHg 65%
    20:00 +23°C° 0 mm 1 mps 744 mmHg 71%
    21:00 +22°C° 0 mm 1 mps 745 mmHg 77%
    22:00 +20°C° 0 mm 1 mps 745 mmHg 83%
    23:00 +20°C° 0 mm 1 mps 745 mmHg 85%

    Tomorrow, 25 January, Friday

    Time Temperature Precipitation Wind Pressure Humidity
    00:00 +20°C° 0 mm 1 mps 745 mmHg 87%
    01:00 +19°C° 0 mm 1 mps 745 mmHg 89%
    02:00 +19°C° 0 mm 1 mps 745 mmHg 89%
    03:00 +19°C° 0 mm 1 mps 745 mmHg 89%
    04:00 +18°C° 0 mm 1 mps 745 mmHg 88%
    05:00 +18°C° 0 mm 1 mps 745 mmHg 87%
    06:00 +18°C° 0 mm 1 mps 745 mmHg 86%
    07:00 +18°C° 0 mm 1 mps 746 mmHg 84%
    08:00 +22°C° 0 mm 1 mps 746 mmHg 71%
    09:00 +26°C° 0 mm 1 mps 746 mmHg 57%
    10:00 +28°C° 0 mm 0 mps 747 mmHg 43%
    11:00 +32°C° 0 mm 1 mps 746 mmHg 37%
    12:00 +33°C° 0 mm 1 mps 745 mmHg 31%
    13:00 +35°C° 0 mm 1 mps 745 mmHg 25%
    14:00 +35°C° 0 mm 1 mps 744 mmHg 25%
    15:00 +34°C° 0 mm 1 mps 744 mmHg 25%
    16:00 +35°C° 0 mm 2 mps 743 mmHg 26%
    17:00 +31°C° 0 mm 1 mps 744 mmHg 36%
    18:00 +27°C° 0 mm 1 mps 744 mmHg 47%
    19:00 +24°C° 0 mm 1 mps 745 mmHg 57%
    20:00 +23°C° 0 mm 1 mps 745 mmHg 65%
    21:00 +22°C° 0 mm 1 mps 746 mmHg 72%
    22:00 +20°C° 0 mm 1 mps 747 mmHg 79%
    23:00 +20°C° 0 mm 1 mps 747 mmHg 82%

    Day after tomorrow, 26 January, Saturday

    Time Temperature Precipitation Wind Pressure Humidity
    00:00 +19°C° 0 mm 1 mps 746 mmHg 85%
    01:00 +18°C° 0 mm 1 mps 746 mmHg 89%
    02:00 +18°C° 0 mm 1 mps 746 mmHg 89%
    03:00 +18°C° 0 mm 1 mps 746 mmHg 89%
    04:00 +18°C° 0 mm 1 mps 745 mmHg 89%
    05:00 +18°C° 0 mm 1 mps 746 mmHg 89%
    06:00 +18°C° 0 mm 1 mps 746 mmHg 89%
    07:00 +18°C° 0 mm 1 mps 747 mmHg 88%
    08:00 +22°C° 0 mm 1 mps 747 mmHg 76%
    09:00 +25°C° 0 mm 1 mps 748 mmHg 63%
    10:00 +28°C° 0 mm 1 mps 748 mmHg 50%
    11:00 +30°C° 0 mm 2 mps 747 mmHg 45%
    12:00 +32°C° 0 mm 2 mps 747 mmHg 39%
    13:00 +35°C° 0 mm 2 mps 746 mmHg 33%
    14:00 +34°C° 0 mm 2 mps 745 mmHg 34%
    15:00 +34°C° 0 mm 2 mps 745 mmHg 36%
    16:00 +33°C° 0 mm 3 mps 744 mmHg 38%
    17:00 +30°C° 0 mm 2 mps 745 mmHg 48%
    18:00 +27°C° 0 mm 2 mps 745 mmHg 58%
    19:00 +24°C° 0 mm 1 mps 746 mmHg 69%
    20:00 +23°C° 0 mm 1 mps 746 mmHg 74%
    21:00 +22°C° 0 mm 1 mps 747 mmHg 80%
    22:00 +21°C° 0 mm 1 mps 747 mmHg 85%
    23:00 +20°C° 0 mm 1 mps 747 mmHg 87%

    27 January, Sunday

    Time Temperature Precipitation Wind Pressure Humidity
    00:00 +20°C° 0 mm 1 mps 747 mmHg 90%
    01:00 +19°C° 0 mm 1 mps 746 mmHg 92%
    02:00 +19°C° 0 mm 1 mps 746 mmHg 92%
    03:00 +19°C° 0 mm 1 mps 746 mmHg 93%
    04:00 +19°C° 0 mm 1 mps 745 mmHg 94%
    05:00 +19°C° 0 mm 1 mps 746 mmHg 93%
    06:00 +19°C° 0 mm 1 mps 746 mmHg 92%
    07:00 +19°C° 0 mm 1 mps 747 mmHg 91%
    08:00 +22°C° 0 mm 1 mps 747 mmHg 77%
    09:00 +26°C° 0 mm 1 mps 748 mmHg 63%
    10:00 +29°C° 0 mm 1 mps 748 mmHg 49%
    11:00 +31°C° 0 mm 1 mps 747 mmHg 43%
    12:00 +33°C° 0 mm 1 mps 747 mmHg 38%
    13:00 +34°C° 0 mm 1 mps 746 mmHg 33%
    14:00 +34°C° 0 mm 1 mps 745 mmHg 34%
    15:00 +33°C° 0 mm 1 mps 744 mmHg 34%
    16:00 +34°C° 0 mm 2 mps 744 mmHg 35%
    17:00 +30°C° 0 mm 1 mps 744 mmHg 44%
    18:00 +27°C° 0 mm 1 mps 745 mmHg 53%
    19:00 +24°C° 0 mm 1 mps 745 mmHg 62%
    20:00 +23°C° 0 mm 1 mps 746 mmHg 68%
    21:00 +22°C° 0 mm 1 mps 746 mmHg 74%
    22:00 +21°C° 0 mm 1 mps 747 mmHg 80%
    23:00 +20°C° 0 mm 1 mps 746 mmHg 83%

    28 January, Monday

    Time Temperature Precipitation Wind Pressure Humidity
    00:00 +20°C° 0 mm 1 mps 746 mmHg 85%
    01:00 +19°C° 0 mm 1 mps 745 mmHg 88%
    02:00 +19°C° 0 mm 1 mps 745 mmHg 88%
    03:00 +19°C° 0 mm 1 mps 745 mmHg 89%
    04:00 +19°C° 0 mm 1 mps 744 mmHg 90%
    05:00 +19°C° 0 mm 1 mps 745 mmHg 89%
    06:00 +19°C° 0 mm 1 mps 745 mmHg 89%
    07:00 +19°C° 0 mm 1 mps 746 mmHg 88%
    08:00 +23°C° 0 mm 1 mps 746 mmHg 75%
    09:00 +26°C° 0 mm 1 mps 747 mmHg 62%
    10:00 +30°C° 0 mm 1 mps 747 mmHg 50%
    11:00 +32°C° 0 mm 1 mps 746 mmHg 44%
    12:00 +33°C° 0 mm 1 mps 746 mmHg 39%
    13:00 +35°C° 0 mm 1 mps 745 mmHg 33%
    14:00 +35°C° 0 mm 1 mps 744 mmHg 34%
    15:00 +34°C° 0 mm 1 mps 744 mmHg 35%
    16:00 +33°C° 0 mm 1 mps 743 mmHg 37%
    17:00 +31°C° 0 mm 1 mps 743 mmHg 45%
    18:00 +29°C° 0 mm 1 mps 744 mmHg 53%
    19:00 +26°C° 0 mm 1 mps 744 mmHg 61%
    20:00 +25°C° 0 mm 1 mps 745 mmHg 67%
    21:00 +23°C° 0 mm 1 mps 745 mmHg 74%
    22:00 +22°C° 0 mm 1 mps 745 mmHg 80%
    23:00 +21°C° 0 mm 1 mps 745 mmHg 82%

    29 January, Tuesday

    Time Temperature Precipitation Wind Pressure Humidity
    00:00 +21°C° 0 mm 1 mps 745 mmHg 84%
    01:00 +20°C° 0 mm 1 mps 745 mmHg 85%
    02:00 +20°C° 0 mm 1 mps 745 mmHg 86%
    03:00 +20°C° 0 mm 1 mps 744 mmHg 87%
    04:00 +19°C° 0 mm 1 mps 744 mmHg 89%
    05:00 +19°C° 0 mm 1 mps 744 mmHg 88%
    06:00 +19°C° 0 mm 1 mps 745 mmHg 87%
    07:00 +20°C° 0 mm 1 mps 745 mmHg 86%
    08:00 +23°C° 0 mm 1 mps 745 mmHg 72%
    09:00 +27°C° 0 mm 1 mps 746 mmHg 59%
    10:00 +30°C° 0 mm 1 mps 746 mmHg 45%
    11:00 +32°C° 0 mm 1 mps 745 mmHg 41%
    12:00 +34°C° 0 mm 1 mps 744 mmHg 37%
    13:00 +36°C° 0 mm 1 mps 743 mmHg 32%
    14:00 +35°C° 0 mm 1 mps 743 mmHg 33%
    15:00 +35°C° 0 mm 1 mps 742 mmHg 33%
    16:00 +34°C° 0 mm 1 mps 742 mmHg 33%
    17:00 +31°C° 0 mm 1 mps 742 mmHg 43%
    18:00 +28°C° 0 mm 1 mps 743 mmHg 53%
    19:00 +26°C° 0 mm 1 mps 743 mmHg 63%
    20:00 +24°C° 0 mm 1 mps 744 mmHg 70%
    21:00 +23°C° 0 mm 1 mps 744 mmHg 77%
    22:00 +22°C° 0 mm 1 mps 745 mmHg 83%
    23:00 +21°C° 0 mm 1 mps 744 mmHg 85%
    Show more